Simultaneous Nadir Overpasses (SNOs) Predictions

Prediction of SNOs between GOES-16 and METOP-C Satellite Orbit:

Table of predicted SNOs for the next 14.0 days since TLE Epoch: 6/5/2021
Index Date Time (GOES-16) GOES-16 Lat,Lon METOP-C Lat,Lon Distance(km) Time Diff (sec)
1 06/05/2021 14:49:35 -0.03, -75.24 0.80, -79.03 431.32 80
2 06/06/2021 14:26:16 -0.03, -75.24 -0.32, -74.03 137.86 80
3 06/08/2021 02:47:56 0.03, -75.23 -0.72, -78.63 387.27 80
4 06/09/2021 02:24:37 0.03, -75.23 0.40, -73.64 182.03 80
5 06/10/2021 14:46:07 -0.03, -75.25 0.63, -78.19 335.57 80
6 06/11/2021 14:22:48 -0.04, -75.25 -0.49, -73.20 233.80 80
7 06/13/2021 02:44:28 0.04, -75.25 -0.55, -77.80 290.78 80
8 06/14/2021 02:21:08 0.05, -75.25 0.58, -72.80 278.80 80
9 06/15/2021 14:42:40 -0.05, -75.28 0.41, -77.37 238.17 80
10 06/16/2021 14:19:20 -0.06, -75.29 -0.72, -72.38 331.78 80
11 06/18/2021 02:41:01 0.05, -75.29 -0.30, -76.98 191.51 80
